Regional Weather Roundup
Issued by NWS Upton, NY

Current Version | Previous Version | Graphics & Text | Print | Product List | Glossary Off
Versions: 1 2 3 4 5 6 7 8 9 10 11 12 13 14 15 16 17 18 19 20 21 22 23 24 25 26 27 28 29 30 31 32 33 34 35 36 37 38 39 40 41 42 43 44 45 46 47 48 49 50

000
ASUS41 KOKX 241609
RWROKX

REGIONAL WEATHER ROUNDUP
NATIONAL WEATHER SERVICE NEW YORK NY
1100 AM EST FRI NOV 24 2017

NOTE: "FAIR" INDICATES FEW OR NO CLOUDS BELOW 12,000 FEET WITH NO
SIGNIFICANT WEATHER AND/OR OBSTRUCTIONS TO VISIBILITY.

NYZ071-072-176-178-NJZ106-104-241700-
NEW YORK CITY METRO AREA

CITY           SKY/WX    TMP DP  RH WIND       PRES   REMARKS
Central Park   SUNNY     44  23  43 VRB3      30.06F
Bronx Bot Gard   N/A     45  23  42 W7        30.04F
Bronx Lehman C   N/A     43  32  65 W3          N/A
LaGuardia APRT SUNNY     46  23  40 N3        30.04F
Queens College   N/A     45  32  61 SW3         N/A
Kennedy INTL   SUNNY     44  26  49 SW6       30.06F
Breezy Point     N/A     41 N/A N/A W5          N/A
Brooklyn Coll    N/A     45  32  61 SW3         N/A
Staten Island    N/A     45  32  61 W2          N/A
Newark/Liberty SUNNY     46  23  40 CALM      30.05F
Teterboro      SUNNY     44  25  47 S3        30.04F
$$

NYZ177-179-078>081-241700-
LONG ISLAND NEW YORK

CITY           SKY/WX    TMP DP  RH WIND       PRES   REMARKS
Jones Beach      N/A     43 N/A N/A SW2         N/A
Wantagh          N/A     45  32  61 SW3         N/A
Matinecock PT    N/A     43 N/A N/A SW5         N/A
Farmingdale    SUNNY     45  24  43 CALM      30.05F
MacArthur/ISP  MOSUNNY   46  25  43 S3        30.04F
Shirley        SUNNY     46  26  45 CALM      30.05F
Mt Sinai Harb    N/A    N/A N/A N/A W2          N/A
Westhampton    SUNNY     46  25  43 VRB3      30.05F
East Hampton   FAIR      45  28  50 CALM      30.04F
Southold         N/A     45  32  61 W2          N/A
Montauk          N/A     47  32  56 VRB3      30.05F
$$

NYZ052-065-067-241700-
HUDSON VALLEY

CITY           SKY/WX    TMP DP  RH WIND       PRES   REMARKS
White Plains   SUNNY     44  23  43 NW6       30.02F
Larchmont Harb   N/A     39 N/A N/A S6          N/A  WCI  35
Croton On Huds   N/A     41 N/A N/A S2          N/A
Somers           N/A     43  32  65 SW2         N/A
Brewster         N/A     43  32  65 W1          N/A
Newburgh       SUNNY     41  25  52 W7        30.03F
Montgomery     SUNNY     42  25  50 S6        30.01F
Suffern          N/A     45  32  61 S2          N/A
Poughkeepsie   SUNNY     42  23  46 S6        30.02F
Albany         MOSUNNY   41  24  51 SE5       30.00F
$$

NJZ001-105-106-008-010-013-015-019>022-104-241700-
NEW JERSEY

CITY           SKY/WX    TMP DP  RH WIND       PRES   REMARKS
Newark/Liberty SUNNY     46  23  40 CALM      30.05F
Teterboro      SUNNY     44  25  47 S3        30.04F
Caldwell       SUNNY     43  25  49 VRB3      30.05F
Somerville     SUNNY     47  28  47 CALM      30.03F
Linden         FAIR      45  22  41 CALM      30.05F
Perth Amboy      N/A     41 N/A N/A W6          N/A
Sussex         SUNNY     42  25  50 VRB3      30.02F
Andover          N/A     43  25  49 SW3       30.03F
Trenton        SUNNY     46  25  43 VRB3      30.05F
Millville      SUNNY     47  32  56 W7        30.08F
Atlantic City  SUNNY     48  28  46 CALM      30.08F
Wrightstown    SUNNY     46  27  47 NW3       30.04F
Toms River     SUNNY     47  24  40 W8        30.07F
Belmar         SUNNY     45  24  43 W6        30.07F
$$

PAZ047>061-062-071-241700-
EASTERN PENNSYLVANIA

CITY           SKY/WX    TMP DP  RH WIND       PRES   REMARKS
Philadelphia   SUNNY     45  28  51 SW6       30.08F
Allentown      SUNNY     44  25  47 SW5       30.04F
Scranton       SUNNY     43  23  45 W12       30.00F
$$

CTZ002-004>006-009-010-012-RIZ004-006-007-MAZ004-011-015-241700-
SOUTHERN NEW ENGLAND
 IN CT

CITY           SKY/WX    TMP DP  RH WIND       PRES   REMARKS
Bradley INTL   MOSUNNY   42  25  50 S5        30.02F
Hartford       SUNNY     43  26  51 CALM      30.03F
Danbury        SUNNY     44  23  43 SW5       30.03F
Wtrbury/Oxford SUNNY     42  24  49 VRB3      30.02S
Norwalk Harbor   N/A     39 N/A N/A SW5         N/A
Bridgeport     SUNNY     42  25  50 SW6       30.04F
Meriden        SUNNY     42  23  46 S5        30.03F
New Haven      SUNNY     42  25  50 SW6       30.04S
Chester        FAIR      46  21  36 SE6       30.02F
Groton         SUNNY     45  31  58 SW8       30.04S
Wilimantic     SUNNY     43  26  51 CALM      30.03F

 IN RI

CITY           SKY/WX    TMP DP  RH WIND       PRES   REMARKS
Providence     MOSUNNY   46  26  45 W6        30.04F
Block Island   SUNNY     46  29  51 SW5       30.04F
Westerly       SUNNY     45  30  55 SW7       30.04F
 IN MA

CITY           SKY/WX    TMP DP  RH WIND       PRES   REMARKS
Boston         SUNNY     44  26  49 W6        30.02S
Worcester      SUNNY     40  22  48 SW6       29.98F
Westfield      SUNNY     42  24  49 CALM      30.01S
Provincetown   SUNNY     45  30  55 W9        30.02F
Nantucket      SUNNY     48  33  56 W9        30.03F
$$

ANZ330-335-338-340-345-350-353-355-241700-
COASTAL MARINE OBSERVATIONS


STATION/POSITION TIME  SKY/WX   TEMP    WIND        PRES    VSBY  WAVE
                                AIR SEA DIR/SP/G                  HT/PER
                 (UTC)          (F)     (DEG/KT/KT) (MB)    (MI)  (FT/S)
NY HARB ENTRANCE 1450            42 55  290/  8/ 10 1017.5          3/ 9
20 S FIRE ISLAND 1450            44 56  280/  6/ 10 1018.0          3/ 9
GREAT SOUTH BAY  1530            41 45  270/  2/  4   N/A
HUDSON CANYON    1550            48 59  260/  4/  6 1018.0          4/11
KINGS POINT      1530            42 49   CALM  /  1 1018.5
EXECUTION ROCKS  1545            44     190/  6/  8   N/A
WESTERN LI SOUND 1449            42     250/  6/  8   N/A           0
CENTRAL LI SOUND NOT AVBL
ROBBINS REEF     1548            42     150/  2/  2 1018.3
$$


>>>>>>>>>>>>>>>>>>>>>>>>>>>> KEY <<<<<<<<<<<<<<<<<<<<<<<<<<<
>                                                          <
>     SKY/WX - Sky Condition/Present Weather               <
>     TMP    - Temperature in Fahrenheit                   <
>     DP     - Dew Point in Fahrenheit                     <
>     RH     - Relative Humidity in Percent                <
>     WIND   - Direction (from) and Speed in MPH           <
>     PRES   - Mean Sea Level Pressure (inches of Hg)      <
>     WCI    - Wind Chill Index                            <
>     VSB    - VISIBILITY IN MILES                         <
>     HX     - HEAT INDEX                                  <
>     TC     - TEMPERATURE IN CELSIUS                      <
>     VRB    - VARIABLE WIND DIRECTION                     <
>                                                          <
>>>>>>>>>>>>>>>>>>>>>>>>>>>> KEY <<<<<<<<<<<<<<<<<<<<<<<<<<<



USA.gov is the U.S. government's official web portal to all federal, state and local government web resources and services.